Location: Oak Glen
(34.0495°N, 116.9470°E)
Time: 20:59:11
(UTC-07:00)

Envisat - Pass Details

Date: 09 October 2017
Orbit: 764 x 766 km, 98.2° (Epoch: 16 October)

Event Time Altitude Azimuth Distance (km) Brightness Sun altitude
Exits shadow 05:22:56 31° 333° (NNW) 1,314 4.4 -33.1°
Drops below altitude 10° 05:25:35 10° 342° (NNW) 2,303 5.8 -33.6°
Sets 05:27:55 0° 345° (NNW) 3,233 6.6 -34.0°
